Location: Beverley
(50.2667°N, 107.9667°W)
Time: 08:59:02
(UTC+00:00)

MOZHAYETS 4 - Visible Passes

Search period start: 29 June 2022 00:00
Search period end: 09 July 2022 00:00
Orbit: 660 x 679 km, 98.2° (Epoch: 28 June)

Date Brightness Start Highest point End Pass type
(mag) Time Alt. Az. Time Alt. Az. Time Alt. Az.
29 Jun 10.0 08:08:23 10° ESE 08:11:52 22° ENE 08:15:21 10° N visible
29 Jun 7.9 09:44:02 10° S 09:48:35 58° W 09:53:09 10° NNW visible
30 Jun 9.1 08:39:52 10° SE 08:44:08 38° ENE 08:48:24 10° N visible
30 Jun 8.7 10:17:15 10° SSW 10:21:17 30° W 10:25:20 10° NNW visible
01 Jul 10.5 07:38:19 10° ENE 07:40:14 13° NE 07:42:10 10° NNE visible
01 Jul 7.9 09:11:56 10° SSE 09:16:32 74° ENE 09:21:09 10° N visible
02 Jul 10.0 08:08:52 10° ESE 08:12:21 22° ENE 08:15:51 10° N visible
02 Jul 7.9 09:44:32 10° S 09:49:05 57° W 09:53:38 10° NNW visible
03 Jul 9.0 08:40:21 10° SE 08:44:37 38° ENE 08:48:53 10° N visible
03 Jul 8.7 10:17:45 10° SSW 10:21:47 29° W 10:25:49 10° NW visible
04 Jul 10.5 07:38:48 10° ENE 07:40:43 13° NE 07:42:39 10° NNE visible
04 Jul 7.9 09:12:25 10° SSE 09:17:01 74° ENE 09:21:37 10° N visible
05 Jul 10.0 08:09:21 10° ESE 08:12:50 22° ENE 08:16:20 10° N visible
05 Jul 7.9 09:45:02 10° S 09:49:34 57° W 09:54:06 10° NNW visible
06 Jul 9.0 08:40:50 10° SE 08:45:05 39° ENE 08:49:21 10° N visible
06 Jul 8.7 10:18:15 10° SSW 10:22:15 29° W 10:26:16 10° NW visible
07 Jul 10.5 07:39:15 10° E 07:41:11 13° NE 07:43:08 10° NNE visible
07 Jul 7.9 09:12:54 10° SSE 09:17:30 74° ENE 09:22:05 10° N visible
08 Jul 10.0 08:09:49 10° ESE 08:13:18 22° ENE 08:16:48 10° N visible
08 Jul 7.9 09:45:31 10° S 09:50:02 56° W 09:54:34 10° NNW visible
